1050 visiteurs
Prévisions de votre ville :
Vigilance : 15 départements Mise à jour le 12/11/2019 à 16:09 - Voir la carte

Paris Roissy CDG (95380) le 12/11/2019 à 22:00 Choisir station

3.9°C 89 % SSO Rafales 28 km/h
Vit. moyenne 20 kmh/h

Relevés météo quotidiens pour la station de :

UTC
S: Synop
M: Metar
Loc T°C
(°C)
Td
(°C)
HR
(%)
Vis
(km)
Néb
(octa)
Vent
(km/h)
Pression
(mb)
Précipitations
(mm)
Temps
              MOY
10 min
DIR RAF 1h MESURE VAR SUR 3h    
S 00 h 02h 11.3 6.6 73 60 - 28 54 1021.8 +1.1/3h 0.0/6h - 0.0/3h -
S 01 h 03h 11.3 6.8 74 60 - 28 52 1021.5 +0.5/3h 0.0/1h -
S 02 h 04h 11.2 6.7 74 55 - 30 59 1021.5 0.0/3h 0.0/1h -
S 03 h 05h 11.7 6.6 71 45 - 20 35 1021.8 0.0/3h 0.0/3h -
S 04 h 06h 11.3 6.6 73 35 - 31 63 1021.6 +0.1/3h 0.0/1h -
S 05 h 07h 11.4 6.7 73 12 - 39 63 1022.0 +0.5/3h 0.0/1h -
S 06 h 08h 11.8 6.9 72 14 - 39 70 1022.2 +0.4/3h 0.0/12h - 0.0/3h - 0.6/24h -
S 07 h 09h 12.7 6.7 67 24 7/8 26 41 1021.8 +0.2/3h 0.0/1h
S 08 h 10h 14.6 6.9 60 9 - 30 50 1021.1 -0.8/3h 0.0/1h -
S 09 h 11h 15.8 7.3 57 7 - 30 52 1020.8 -1.3/3h 0.0/3h -
S 10 h 12h 16.6 6.1 50 6 - 57 93 1020.5 -1.2/3h 0.0/1h -
S 11 h 13h 16.7 5.6 48 6 - 50 94 1021.4 +0.3/3h 0.0/1h -
S 12 h 14h 18.2 6.4 46 6 - 22 43 1020.7 0.0/3h 0.0/6h - 0.0/3h -
S 13 h 15h 18.1 4.6 41 7 - 57 87 1020.5 +0.1/3h 0.0/1h -
S 14 h 16h 18.7 4.5 39 5 - 56 100 1019.9 -1.4/3h 0.0/1h -
S 15 h 17h 18.2 4.0 39 4.5 - 56 102 1019.9 -0.8/3h 0.0/3h -
S 16 h 18h 17.4 2.9 38 4.6 - 31 50 1019.4 -1.1/3h 0.0/1h -
S 17 h 19h 17.2 2.4 37 4.8 - 33 50 1019.3 -0.6/3h 0.0/1h -
S 18 h 20h 16.6 1.8 37 11 - 28 50 1020.0 0.0/3h 0.0/12h - 0.0/3h -
S 19 h 21h 15.9 0.8 36 50 - 57 94 1021.0 +1.5/3h 0.0/1h -
S 20 h 22h 15.0 1.1 39 60 - 54 91 1021.1 +1.7/3h 0.0/1h -
S 21 h 23h 14.4 1.6 42 60 - 30 46 1021.0 +1.0/3h 0.0/3h -
S 22 h 00h 13.7 1.7 44 60 - 63 102 1020.4 -0.6/3h 0.0/1h -
S 23 h 01h 12.9 2.1 48 60 - 57 102 1020.4 -0.8/3h 0.0/1h -
evolution des temperatures
cumul des precipitations
vent moyen et rafales
pression atmospherique

Un tiret (-) signifie que les données ne sont pas disponibles.

Passez la souris sur les pictos temps pour avoir plus de précisions. Passez les flèches sur l'icône de la direction du vent pour voir la direction précise en degrés.

Les données de l'heure en cours sont disponibles à partir de H+15 minutes.


S signifie station Synop, plus complète qu'une station Metar (M). Il y a +1h de différence entre l'heure UTC et l'heure légale en hiver et +2h en été.

Td est la mesure du point de rosée.

HR est l'humidité relative/p>

Vis est la visibilité

Néb est la nébulosité du ciel (couverture nuageuse) exprimée en octas (de 0/8 à 8/8).

Vent moy 10 min donne le vent moyen sur les 10 minutes qui précèdent le relevé.

Vent raf 1h donne la rafale maximale mesurée dans l'heure qui précède le relevé.


Les données les plus anciennes remontent à avril 2014.

Les données présentées sur cette page proviennent des stations météo officielles. Les relevés sont effectués aux normes en vigueur (anémomètre à 10m de haut, thermomètre sous abri normalisé à 2m du sol...)

Météo 60 décline toute responsabilité en cas d'absence de données, d'erreurs, de mauvaise utilisation ou interprétation et n'est pas habilité à fournir des certificats intempéries.